DW7418 Weather Reports


time (UTC)temp
C
wind
direction
speed
KPH
gust
KPH
rain 1hr
cm
rain 24hr
cm
rain mn
cm
humidity
%
barometer
mb
20260503004503 11 328 1.6 8.0 0.30 0.43 0.43 1 1011.8
20260503003603 11 293 1.6 4.8 0.36 0.43 0.43 1 1012.5
20260503002703 11 291 1.6 4.8 0.43 0.43 0.43 1 1013.1
20260503001803 12 291 0.0 3.2 0.41 0.41 0.41 1 1013.3
20260503000903 12 0 0.0 0.0 0.36 0.36 0.36 1 1013.4
20260503000003 12 235 0.0 3.2 0.28 0.28 0.28 1 1013.9
20260502235403 12 235 0.0 11.3 0.23 0.23 0.23 1 1014.2
20260502234503 12 240 3.2 11.3 0.15 0.15 0.15 1 1014.4
20260502233817 12 235 6.4 16.1 0.08 0.08 0.08 1 1014.7
20260502232703 12 242 6.4 19.3 0.00 0.00 0.00 1 1014.8
20260502232017 12 313 1.6 6.4 0.00 0.00 0.00 1 1014.0
20260502230903 12 0 0.0 0.0 0.00 0.00 0.00 1 1014.0
20260502230218 12 0 0.0 0.0 0.00 0.00 0.00 1 1013.8
20260502225403 12 0 0.0 0.0 0.00 0.00 0.00 1 1013.8
20260502224717 12 96 0.0 1.6 0.00 0.00 0.00 1 1013.9
20260502223603 12 106 1.6 6.4 0.00 0.00 0.00 1 1014.0
20260502222703 12 134 3.2 14.5 0.00 0.00 0.00 1 1014.0
20260502221803 12 0 0.0 0.0 0.00 0.00 0.00 1 1013.7
20260502220903 12 0 0.0 0.0 0.00 0.00 0.00 1 1013.6
20260502220006 12 31 0.0 4.8 0.00 0.00 0.00 1 1013.7
20260502215403 12 18 1.6 8.0 0.00 0.00 0.00 1 1013.6
20260502214503 12 22 3.2 12.9 0.00 0.00 0.00 1 1013.6
20260502213603 13 17 3.2 8.0 0.00 0.00 0.00 1 1013.8
20260502212703 13 13 3.2 6.4 0.00 0.00 0.00 1 1014.0
20260502212017 13 9 3.2 8.0 0.00 0.00 0.00 1 1013.9
20260502210903 13 11 3.2 8.0 0.00 0.00 0.00 1 1014.0
20260502210004 13 356 3.2 6.4 0.00 0.00 0.00 1 1014.1
20260502205403 13 344 1.6 6.4 0.00 0.00 0.00 1 1014.2
20260502204503 13 14 1.6 6.4 0.00 0.00 0.00 1 1014.3
20260502203604 14 6 3.2 6.4 0.00 0.00 0.00 1 1014.5
20260502202703 14 344 3.2 6.4 0.00 0.00 0.00 1 1014.6
20260502201803 14 343 1.6 4.8 0.00 0.00 0.00 1 1014.6
20260502200903 15 342 1.6 4.8 0.00 0.00 0.00 4 1014.7
20260502200003 15 342 1.6 4.8 0.00 0.00 0.00 9 1014.9
20260502195403 15 340 1.6 6.4 0.00 0.00 0.00 12 1014.9
20260502194503 15 346 1.6 8.0 0.00 0.00 0.00 21 1014.8
20260502193603 15 13 1.6 6.4 0.00 0.00 0.00 30 1014.7
20260502192916 15 3 1.6 8.0 0.00 0.00 0.00 36 1014.7
20260502191803 15 341 1.6 6.4 0.00 0.00 0.00 47 1014.6
20260502190903 15 350 1.6 9.7 0.00 0.00 0.00 54 1014.6
20260502190004 16 353 1.6 9.7 0.00 0.00 0.00 61 1014.6
20260502185403 16 340 3.2 8.0 0.00 0.00 0.00 63 1014.7
20260502184503 16 348 1.6 8.0 0.00 0.00 0.00 65 1014.6
20260502183603 16 348 3.2 12.9 0.00 0.00 0.00 68 1014.7
20260502181803 16 334 1.6 11.3 0.00 0.00 0.00 68 1014.7
20260502180903 17 338 3.2 12.9 0.00 0.00 0.00 66 1014.8
20260502180218 17 326 3.2 12.9 0.00 0.00 0.00 65 1014.8
20260502163603 21 281 4.8 14.5 0.00 0.00 0.00 49 1015.4
20260502162917 22 291 4.8 14.5 0.00 0.00 0.00 50 1015.5
20260502161803 21 297 8.0 20.9 0.00 0.00 0.00 50 1015.4
20260502161122 21 283 8.0 17.7 0.00 0.00 0.00 50 1015.6
20260502152018 21 277 9.7 24.1 0.00 0.00 0.00 60 1016.0
20260502151118 21 286 8.0 16.1 0.00 0.00 0.00 62 1016.0
20260502122703 21 242 9.7 24.1 0.00 0.00 0.00 64 1017.2
20260502121803 21 249 12.9 20.9 0.00 0.00 0.00 62 1017.2
20260502120904 21 238 12.9 25.7 0.00 0.00 0.00 63 1017.3
20260502115403 22 255 8.0 20.9 0.00 0.00 0.00 61 1017.4
20260502114503 21 257 8.0 16.1 0.00 0.00 0.00 63 1017.5
20260502113818 21 264 9.7 24.1 0.00 0.00 0.00 62 1017.6
20260502112703 21 242 9.7 22.5 0.00 0.00 0.00 62 1017.7
20260502111803 21 255 8.0 22.5 0.00 0.00 0.00 60 1017.7
20260502111118 21 261 6.4 17.7 0.00 0.00 0.00 62 1017.8
20260502110004 21 253 6.4 14.5 0.00 0.00 0.00 61 1017.8
20260502105403 20 254 6.4 16.1 0.00 0.00 0.00 63 1017.8
20260502104503 20 251 8.0 17.7 0.00 0.00 0.00 64 1017.8
20260502103818 18 261 8.0 17.7 0.00 0.00 0.00 65 1017.9
20260502102703 17 249 3.2 12.9 0.00 0.00 0.00 65 1017.9
20260502101803 17 233 6.4 11.3 0.00 0.00 0.00 65 1017.7
20260502100903 17 232 4.8 8.0 0.00 0.00 0.00 64 1017.6
20260502090903 15 228 4.8 9.7 0.00 0.00 0.00 63 1018.1
20260502070903 17 182 4.8 11.3 0.00 0.00 0.00 55 1018.1
20260502070003 16 184 4.8 11.3 0.00 0.00 0.00 55 1018.1
20260502065403 16 184 4.8 11.3 0.00 0.00 0.00 57 1018.0
20260502064504 16 185 4.8 9.7 0.00 0.00 0.00 58 1018.0
20260502063603 15 184 4.8 9.7 0.00 0.00 0.00 59 1018.0
20260502062703 14 183 6.4 11.3 0.00 0.00 0.00 61 1018.0
20260502061803 13 184 4.8 11.3 0.00 0.00 0.00 62 1018.0
20260502060903 13 178 4.8 11.3 0.00 0.00 0.00 64 1018.0
20260502060003 12 164 6.4 11.3 0.00 0.00 0.00 66 1018.0
20260502055403 12 163 1.6 8.0 0.00 0.00 0.00 67 1018.0
20260502054503 11 163 1.6 8.0 0.00 0.00 0.00 68 1017.9
20260502053603 10 163 1.6 8.0 0.00 0.00 0.00 68 1017.8
20260502052703 10 163 1.6 6.4 0.00 0.00 0.00 68 1017.9
20260502051803 10 163 0.0 3.2 0.00 0.00 0.00 68 1018.0
20260502050903 10 163 1.6 6.4 0.00 0.00 0.00 68 1018.0
20260502050003 10 163 3.2 8.0 0.00 0.00 0.00 68 1018.0
20260502045403 10 163 3.2 9.7 0.00 0.00 0.00 68 1018.0
20260502044504 10 163 3.2 9.7 0.00 0.00 0.00 68 1018.0
20260502043603 10 163 3.2 6.4 0.00 0.00 0.00 68 1017.9
20260502042703 10 163 3.2 6.4 0.00 0.00 0.00 67 1017.9
20260502041803 10 163 4.8 8.0 0.00 0.00 0.00 67 1018.1
20260502040903 10 163 3.2 8.0 0.00 0.00 0.00 66 1018.1
20260502040004 10 163 3.2 8.0 0.00 0.00 0.00 65 1018.2
20260502035616 10 163 3.2 8.0 0.00 0.00 0.00 65 1018.1
20260502034503 11 163 3.2 8.0 0.00 0.00 0.00 65 1018.2
20260502033603 11 163 3.2 8.0 0.00 0.00 0.00 65 1018.3
20260502032703 11 165 4.8 11.3 0.00 0.00 0.00 65 1018.3
20260502031803 11 166 6.4 11.3 0.00 0.00 0.00 65 1018.4
20260502031117 11 166 4.8 9.7 0.00 0.00 0.00 65 1018.4
20260502030003 11 167 4.8 9.7 0.00 0.00 0.00 64 1018.5
20260502025618 11 167 3.2 9.7 0.00 0.00 0.00 64 1018.5
20260502024717 11 167 4.8 8.0 0.00 0.00 0.00 64 1018.5
20260502023603 11 168 3.2 8.0 0.00 0.00 0.00 63 1018.6
20260502022703 11 169 3.2 9.7 0.00 0.00 0.00 63 1018.6
20260502021803 11 169 1.6 8.0 0.00 0.00 0.00 63 1018.7
20260502020903 11 169 1.6 6.4 0.00 0.00 0.00 62 1018.7
20260502020218 12 169 1.6 8.0 0.00 0.00 0.00 62 1018.8
20260502015403 12 170 3.2 9.7 0.00 0.00 0.00 61 1018.8
20260502014503 12 172 3.2 8.0 0.00 0.00 0.00 61 1018.8
20260502013603 12 178 1.6 4.8 0.00 0.00 0.00 61 1018.9
20260502012703 12 178 1.6 4.8 0.00 0.00 0.00 61 1019.0
20260502012017 12 178 1.6 4.8 0.00 0.00 0.00 61 1019.1
20260502010903 12 178 1.6 4.8 0.00 0.00 0.00 61 1019.2
20260502010004 12 178 1.6 4.8 0.00 0.00 0.00 61 1019.4
20260502005403 12 178 1.6 3.2 0.00 0.00 0.00 60 1019.5